Regional Weather Roundup
Issued by NWS

Home | Current Version | Previous Version | Graphics & Text | Print | Product List | Glossary Off
Versions: 1 2 3 4 5 6 7 8 9 10 11 12 13 14 15 16 17 18 19 20 21 22 23 24 25 26 27 28 29 30 31 32 33 34 35 36 37 38 39 40 41 42 43 44 45 46 47 48 49 50

000
ASUS43 KTOP 011359
RWRKS

WEATHER ROUNDUP FOR KANSAS
NATIONAL WEATHER SERVICE GOODLAND KS
900 AM CDT WED APR 01 2015

NOTE:  "FAIR" INDICATES FEW OR NO CLOUDS BELOW 12,000 FEET WITH NO
SIGNIFICANT WEATHER AND/OR OBSTRUCTIONS TO VISIBILITY.

KSZ001>006-013>018-027>032-041>047-011500-
NORTHWEST KANSAS

CITY           SKY/WX    TMP DP  RH WIND       PRES   REMARKS
GOODLAND       SUNNY     51  45  79 S21       29.72S
HAYS           SUNNY     61  43  51 S16G24    29.76F
HILL CITY      SUNNY     62  45  53 SW10G18   29.74S
RUSSELL        SUNNY     60  46  59 S16       29.74F
$$

KSZ061>065-074>080-084>089-011500-
SOUTHWEST KANSAS

CITY           SKY/WX    TMP DP  RH WIND       PRES   REMARKS
DODGE CITY     SUNNY     58  45  62 S22G29    29.81R
ELKHART          N/A     48  34  58 SE12        N/A
GARDEN CITY    SUNNY     54  47  77 S18G24    29.76S
GREAT BEND     SUNNY     61  46  59 S17       29.77F
LIBERAL        SUNNY     55  46  71 SE17      29.80S
$$

KSZ066>073-081>083-090>101-011500-
SOUTHEAST KANSAS

CITY           SKY/WX    TMP DP  RH WIND       PRES   REMARKS
CHANUTE        CLOUDY    60  50  69 SE10      29.87S
COFFEYVILLE    CLOUDY    61  57  87 SE5       29.85F
HUTCHINSON     SUNNY     58  48  69 SE8       29.82R
MEDICINE LODGE   N/A     58  49  72 S9        29.80F
NEWTON         MOSUNNY   55  46  71 S10       29.84S
PARSONS        CLOUDY    62  56  80 VRB3      29.87F
WICHITA INTL   MOSUNNY   58  51  78 S10       29.82R
WICHITA JABRA  PTSUNNY   61  51  70 S10       29.83R
WINFIELD       CLOUDY    60  52  74 SE6       29.84S
$$

KSZ007>012-019>026-033>040-048>060-102>105-011500-
NORTHEAST KANSAS

CITY           SKY/WX    TMP DP  RH WIND       PRES   REMARKS
CONCORDIA      SUNNY     61  47  59 SE8       29.78S
EMPORIA        CLOUDY    55  43  63 SE7       29.84S
LAWRENCE       CLOUDY    56  43  61 SE9       29.87F
MANHATTAN      SUNNY     63  47  55 S7        29.81F
OLATHE IND     CLOUDY    57  43  59 SE15      29.88F
OLATHE EXE     CLOUDY    58  42  55 SE13      29.88F
SALINA         SUNNY     60  49  66 S8        29.79S
TOPEKA BILLARD PTSUNNY   59  39  47 SE7       29.86S
TOPEKA FORBES  PTSUNNY   58  38  47 SE8       29.85S
$$


USA.gov is the U.S. government's official web portal to all federal, state and local government web resources and services.